Time,TemperatureF,DewpointF,PressureIn,WindDirection,WindDirectionDegrees,WindSpeedMPH,WindSpeedGustMPH,Humidity,HourlyPrecipIn,Conditions,Clouds,dailyrainin,SoftwareType,DateUTC
2013-05-19 00:02:00,69.1,63.0,29.72,SE,129,1.0,2.0,81,0.00,,,0.00,WUHU21623XXSP,2013-05-19 05:02:00,
2013-05-19 00:07:00,69.1,63.0,29.71,SE,126,1.4,2.0,81,0.00,,,0.00,WUHU21623XXSP,2013-05-19 05:07:00,
2013-05-19 00:12:00,69.1,63.0,29.71,East,101,1.3,2.2,81,0.00,,,0.00,WUHU21623XXSP,2013-05-19 05:12:00,
2013-05-19 00:17:00,69.1,63.0,29.71,ENE,67,1.1,2.2,81,0.00,,,0.00,WUHU21623XXSP,2013-05-19 05:17:00,
2013-05-19 00:22:00,69.1,63.0,29.71,ESE,112,2.5,2.5,81,0.00,,,0.00,WUHU21623XXSP,2013-05-19 05:22:00,
2013-05-19 00:27:00,69.1,63.0,29.71,South,180,1.8,2.5,81,0.00,,,0.00,WUHU21623XXSP,2013-05-19 05:27:00,
2013-05-19 00:32:00,69.1,63.0,29.71,ESE,122,0.9,3.1,81,0.00,,,0.00,WUHU21623XXSP,2013-05-19 05:32:00,
2013-05-19 00:37:00,69.1,63.0,29.71,ESE,112,0.9,3.1,81,0.00,,,0.00,WUHU21623XXSP,2013-05-19 05:37:00,
2013-05-19 00:42:00,69.1,63.0,29.71,SSE,147,1.6,2.0,81,0.00,,,0.00,WUHU21623XXSP,2013-05-19 05:42:00,
2013-05-19 00:47:00,69.1,63.0,29.71,South,169,1.3,3.1,81,0.00,,,0.00,WUHU21623XXSP,2013-05-19 05:47:00,
2013-05-19 00:52:00,69.1,63.0,29.71,SE,135,1.3,3.1,81,0.00,,,0.00,WUHU21623XXSP,2013-05-19 05:52:00,
2013-05-19 00:57:00,69.3,63.2,29.71,ESE,118,1.6,2.9,81,0.00,,,0.00,WUHU21623XXSP,2013-05-19 05:57:00,
2013-05-19 01:02:00,69.3,63.2,29.71,South,180,1.3,2.9,81,0.00,,,0.00,WUHU21623XXSP,2013-05-19 06:02:00,
2013-05-19 01:07:00,69.3,62.8,29.71,South,173,1.6,3.6,80,0.00,,,0.00,WUHU21623XXSP,2013-05-19 06:07:00,
2013-05-19 01:12:00,69.3,62.8,29.71,SE,131,1.3,5.8,80,0.00,,,0.00,WUHU21623XXSP,2013-05-19 06:12:00,
2013-05-19 01:17:00,69.3,62.8,29.71,SSE,157,1.3,5.8,80,0.00,,,0.00,WUHU21623XXSP,2013-05-19 06:17:00,
2013-05-19 01:22:00,69.3,62.8,29.71,SSE,164,2.5,3.8,80,0.00,,,0.00,WUHU21623XXSP,2013-05-19 06:22:00,
2013-05-19 01:27:00,69.3,62.8,29.71,South,180,2.0,3.8,80,0.00,,,0.00,WUHU21623XXSP,2013-05-19 06:27:00,
2013-05-19 01:32:00,69.3,62.8,29.71,ESE,115,0.9,2.0,80,0.00,,,0.00,WUHU21623XXSP,2013-05-19 06:32:00,
2013-05-19 01:37:00,69.3,62.8,29.71,SE,135,2.0,2.0,80,0.00,,,0.00,WUHU21623XXSP,2013-05-19 06:37:00,
2013-05-19 01:42:00,69.3,62.8,29.72,ESE,122,1.2,2.0,80,0.00,,,0.00,WUHU21623XXSP,2013-05-19 06:42:00,
2013-05-19 01:47:00,69.3,62.8,29.71,SSE,157,1.1,2.5,80,0.00,,,0.00,WUHU21623XXSP,2013-05-19 06:47:00,
2013-05-19 01:52:00,69.3,62.8,29.71,SSE,148,1.4,3.4,80,0.00,,,0.00,WUHU21623XXSP,2013-05-19 06:52:00,
2013-05-19 01:57:00,69.3,62.8,29.72,South,180,2.0,3.4,80,0.00,,,0.00,WUHU21623XXSP,2013-05-19 06:57:00,
2013-05-19 02:02:00,69.4,63.0,29.72,SSE,157,3.8,3.8,80,0.00,,,0.00,WUHU21623XXSP,2013-05-19 07:02:00,
2013-05-19 02:07:00,69.4,63.0,29.72,South,180,4.0,7.8,80,0.00,,,0.00,WUHU21623XXSP,2013-05-19 07:07:00,
2013-05-19 02:12:00,69.4,63.0,29.72,East,82,1.5,7.8,80,0.00,,,0.00,WUHU21623XXSP,2013-05-19 07:12:00,
2013-05-19 02:17:00,69.4,63.0,29.72,SE,142,1.0,4.3,80,0.00,,,0.00,WUHU21623XXSP,2013-05-19 07:17:00,
2013-05-19 02:22:00,69.4,63.0,29.73,SE,135,0.9,1.6,80,0.00,,,0.00,WUHU21623XXSP,2013-05-19 07:22:00,
2013-05-19 02:27:00,69.3,62.8,29.73,South,180,3.6,3.6,80,0.00,,,0.00,WUHU21623XXSP,2013-05-19 07:27:00,
2013-05-19 02:32:00,69.3,62.8,29.73,SSE,157,2.5,4.0,80,0.00,,,0.00,WUHU21623XXSP,2013-05-19 07:32:00,
2013-05-19 02:37:00,69.3,62.8,29.74,SSE,168,2.8,4.7,80,0.00,,,0.00,WUHU21623XXSP,2013-05-19 07:37:00,
2013-05-19 02:42:00,69.3,62.8,29.74,SSE,168,2.3,4.7,80,0.00,,,0.00,WUHU21623XXSP,2013-05-19 07:42:00,
2013-05-19 02:47:00,69.4,63.0,29.74,South,180,4.3,5.1,80,0.00,,,0.00,WUHU21623XXSP,2013-05-19 07:47:00,
2013-05-19 02:52:00,69.4,63.0,29.74,SSE,158,2.3,5.1,80,0.00,,,0.00,WUHU21623XXSP,2013-05-19 07:52:00,
2013-05-19 02:57:00,69.4,63.0,29.74,SSE,157,3.8,6.7,80,0.00,,,0.00,WUHU21623XXSP,2013-05-19 07:57:00,
2013-05-19 03:02:00,69.4,63.0,29.74,South,180,3.8,6.7,80,0.00,,,0.00,WUHU21623XXSP,2013-05-19 08:02:00,
2013-05-19 03:07:00,69.6,63.2,29.74,SSE,157,4.7,6.7,80,0.00,,,0.00,WUHU21623XXSP,2013-05-19 08:07:00,
2013-05-19 03:12:00,69.6,63.2,29.74,SSE,165,4.1,8.1,80,0.00,,,0.00,WUHU21623XXSP,2013-05-19 08:12:00,
2013-05-19 03:17:00,69.6,62.8,29.74,South,176,2.8,8.1,79,0.00,,,0.00,WUHU21623XXSP,2013-05-19 08:17:00,
2013-05-19 03:22:00,69.6,62.8,29.74,SSE,157,4.3,5.1,79,0.00,,,0.00,WUHU21623XXSP,2013-05-19 08:22:00,
2013-05-19 03:27:00,69.6,62.8,29.73,South,169,2.2,9.6,79,0.00,,,0.00,WUHU21623XXSP,2013-05-19 08:27:00,
2013-05-19 03:32:00,69.6,62.8,29.74,South,180,3.6,9.6,79,0.00,,,0.00,WUHU21623XXSP,2013-05-19 08:32:00,
2013-05-19 03:37:00,69.6,62.8,29.74,SSE,149,1.8,7.8,79,0.00,,,0.00,WUHU21623XXSP,2013-05-19 08:37:00,
2013-05-19 03:42:00,69.6,62.8,29.74,SSE,157,5.4,8.1,79,0.00,,,0.00,WUHU21623XXSP,2013-05-19 08:42:00,
2013-05-19 03:47:00,69.8,62.9,29.74,SSE,157,4.7,8.1,79,0.00,,,0.00,WUHU21623XXSP,2013-05-19 08:47:00,
2013-05-19 03:52:00,69.6,62.8,29.74,South,173,3.2,5.1,79,0.00,,,0.00,WUHU21623XXSP,2013-05-19 08:52:00,
2013-05-19 03:57:00,69.6,62.8,29.73,SSE,156,2.0,5.1,79,0.00,,,0.00,WUHU21623XXSP,2013-05-19 08:57:00,
2013-05-19 04:02:00,69.6,62.8,29.73,SSE,147,1.9,4.3,79,0.00,,,0.00,WUHU21623XXSP,2013-05-19 09:02:00,
2013-05-19 04:07:00,69.6,62.8,29.73,SE,127,1.3,4.3,79,0.00,,,0.00,WUHU21623XXSP,2013-05-19 09:07:00,
2013-05-19 04:12:00,69.6,62.8,29.73,ESE,121,1.2,2.2,79,0.00,,,0.00,WUHU21623XXSP,2013-05-19 09:12:00,
2013-05-19 04:17:00,69.6,62.8,29.73,SE,135,0.9,1.8,79,0.00,,,0.00,WUHU21623XXSP,2013-05-19 09:17:00,
2013-05-19 04:22:00,69.6,62.8,29.72,SSE,157,0.9,1.8,79,0.00,,,0.00,WUHU21623XXSP,2013-05-19 09:22:00,
2013-05-19 04:27:00,69.4,62.6,29.71,ESE,112,1.0,1.3,79,0.00,,,0.00,WUHU21623XXSP,2013-05-19 09:27:00,
2013-05-19 04:32:00,69.4,62.6,29.71,NE,56,0.7,1.3,79,0.00,,,0.00,WUHU21623XXSP,2013-05-19 09:32:00,
2013-05-19 04:37:00,69.1,62.3,29.70,ESE,114,0.9,1.6,79,0.00,,,0.00,WUHU21623XXSP,2013-05-19 09:37:00,
2013-05-19 04:42:00,68.9,62.1,29.71,ESE,109,1.1,1.6,79,0.00,,,0.00,WUHU21623XXSP,2013-05-19 09:42:00,
2013-05-19 04:47:00,68.7,62.0,29.70,East,90,0.7,1.6,79,0.00,,,0.00,WUHU21623XXSP,2013-05-19 09:47:00,
2013-05-19 04:52:00,68.7,62.0,29.69,SE,130,1.1,1.6,79,0.00,,,0.00,WUHU21623XXSP,2013-05-19 09:52:00,
2013-05-19 04:57:00,68.5,62.2,29.69,SE,130,2.3,3.6,80,0.00,,,0.00,WUHU21623XXSP,2013-05-19 09:57:00,
2013-05-19 05:02:00,68.5,62.2,29.69,SE,135,0.9,3.6,80,0.00,,,0.00,WUHU21623XXSP,2013-05-19 10:02:00,
2013-05-19 05:07:00,68.4,62.0,29.69,ESE,122,0.9,1.3,80,0.00,,,0.00,WUHU21623XXSP,2013-05-19 10:07:00,
2013-05-19 05:12:00,68.4,62.0,29.69,ESE,102,1.0,1.6,80,0.00,,,0.00,WUHU21623XXSP,2013-05-19 10:12:00,
2013-05-19 05:17:00,68.2,61.9,29.69,East,90,0.0,1.6,80,0.00,,,0.00,WUHU21623XXSP,2013-05-19 10:17:00,
2013-05-19 05:22:00,68.2,61.9,29.69,SE,135,2.5,2.5,80,0.00,,,0.00,WUHU21623XXSP,2013-05-19 10:22:00,
2013-05-19 05:27:00,68.2,62.2,29.68,ESE,112,1.1,2.5,81,0.00,,,0.00,WUHU21623XXSP,2013-05-19 10:27:00,
2013-05-19 05:32:00,68.2,62.2,29.68,ESE,108,1.2,2.0,81,0.00,,,0.00,WUHU21623XXSP,2013-05-19 10:32:00,
2013-05-19 05:37:00,68.2,62.2,29.68,East,98,1.1,2.0,81,0.00,,,0.00,WUHU21623XXSP,2013-05-19 10:37:00,
2013-05-19 05:42:00,68.2,62.2,29.69,SE,135,2.5,2.9,81,0.00,,,0.00,WUHU21623XXSP,2013-05-19 10:42:00,
2013-05-19 05:47:00,68.2,62.2,29.70,ESE,112,2.5,2.9,81,0.00,,,0.00,WUHU21623XXSP,2013-05-19 10:47:00,
2013-05-19 05:52:00,68.4,62.3,29.69,ESE,123,2.6,5.4,81,0.00,,,0.00,WUHU21623XXSP,2013-05-19 10:52:00,
2013-05-19 05:57:00,68.5,62.5,29.69,South,180,2.0,5.4,81,0.00,,,0.00,WUHU21623XXSP,2013-05-19 10:57:00,
2013-05-19 06:02:00,68.5,62.5,29.69,East,96,1.4,2.9,81,0.00,,,0.00,WUHU21623XXSP,2013-05-19 11:02:00,
2013-05-19 06:07:00,68.5,62.2,29.69,ESE,118,1.5,2.2,80,0.00,,,0.00,WUHU21623XXSP,2013-05-19 11:07:00,
2013-05-19 06:12:00,68.5,62.2,29.69,SSE,148,1.7,2.5,80,0.00,,,0.00,WUHU21623XXSP,2013-05-19 11:12:00,
2013-05-19 06:17:00,68.5,62.2,29.71,SE,135,1.7,3.1,80,0.00,,,0.00,WUHU21623XXSP,2013-05-19 11:17:00,
2013-05-19 06:22:00,68.5,62.2,29.71,SSE,149,2.0,3.1,80,0.00,,,0.00,WUHU21623XXSP,2013-05-19 11:22:00,
2013-05-19 06:27:00,68.7,62.3,29.72,SSE,168,2.8,4.5,80,0.00,,,0.00,WUHU21623XXSP,2013-05-19 11:27:00,
2013-05-19 06:32:00,68.7,62.3,29.72,South,180,5.1,7.8,80,0.00,,,0.00,WUHU21623XXSP,2013-05-19 11:32:00,
2013-05-19 06:37:00,68.9,62.5,29.73,SE,135,9.2,10.7,80,0.00,,,0.00,WUHU21623XXSP,2013-05-19 11:37:00,
2013-05-19 06:42:00,68.5,62.5,29.72,South,180,10.3,12.1,81,0.02,,,0.02,WUHU21623XXSP,2013-05-19 11:42:00,
2013-05-19 06:47:00,67.8,62.2,29.72,SSE,166,10.0,18.8,82,0.06,,,0.06,WUHU21623XXSP,2013-05-19 11:47:00,
2013-05-19 06:52:00,66.7,61.4,29.71,South,180,14.3,18.8,83,0.08,,,0.08,WUHU21623XXSP,2013-05-19 11:52:00,
2013-05-19 06:57:00,66.0,61.0,29.70,South,175,5.4,15.7,84,0.10,,,0.10,WUHU21623XXSP,2013-05-19 11:57:00,
2013-05-19 07:02:00,65.3,60.7,29.70,SSE,167,3.5,15.7,85,0.10,,,0.10,WUHU21623XXSP,2013-05-19 12:02:00,
2013-05-19 07:07:00,64.9,60.3,29.71,SSE,157,3.6,8.5,85,0.10,,,0.10,WUHU21623XXSP,2013-05-19 12:07:00,
2013-05-19 07:12:00,64.8,60.5,29.70,WSW,247,0.0,4.3,86,0.12,,,0.12,WUHU21623XXSP,2013-05-19 12:12:00,
2013-05-19 07:18:00,64.6,60.3,29.70,SSE,166,1.0,2.9,86,0.12,,,0.12,WUHU21623XXSP,2013-05-19 12:18:00,
2013-05-19 07:23:00,64.2,60.0,29.69,NE,45,0.0,1.1,86,0.14,,,0.14,WUHU21623XXSP,2013-05-19 12:23:00,
2013-05-19 07:28:00,64.2,60.0,29.69,NE,45,0.0,0.0,86,0.14,,,0.14,WUHU21623XXSP,2013-05-19 12:28:00,
2013-05-19 07:33:00,64.2,60.3,29.69,SSE,157,1.3,1.3,87,0.14,,,0.14,WUHU21623XXSP,2013-05-19 12:33:00,
2013-05-19 07:38:00,64.2,60.3,29.68,NNE,22,0.0,1.3,87,0.14,,,0.14,WUHU21623XXSP,2013-05-19 12:38:00,
2013-05-19 07:43:00,64.2,60.7,29.67,NNE,22,2.2,3.4,88,0.12,,,0.14,WUHU21623XXSP,2013-05-19 12:43:00,
2013-05-19 07:48:00,64.2,60.7,29.64,NE,42,3.5,5.1,88,0.08,,,0.14,WUHU21623XXSP,2013-05-19 12:48:00,
2013-05-19 07:53:00,64.2,60.7,29.61,NE,51,4.6,10.3,88,0.06,,,0.14,WUHU21623XXSP,2013-05-19 12:53:00,
2013-05-19 07:58:00,64.4,60.8,29.60,NE,46,4.0,10.7,88,0.06,,,0.16,WUHU21623XXSP,2013-05-19 12:58:00,
2013-05-19 08:03:00,64.2,60.7,29.60,ENE,74,5.8,10.7,88,0.06,,,0.16,WUHU21623XXSP,2013-05-19 13:03:00,
2013-05-19 08:08:00,64.2,60.7,29.60,ENE,67,11.0,11.0,88,0.06,,,0.16,WUHU21623XXSP,2013-05-19 13:08:00,
2013-05-19 08:13:00,64.2,61.0,29.59,NE,51,5.0,11.0,89,0.04,,,0.16,WUHU21623XXSP,2013-05-19 13:13:00,
2013-05-19 08:18:00,64.2,61.0,29.59,East,81,4.0,8.9,89,0.04,,,0.16,WUHU21623XXSP,2013-05-19 13:18:00,
2013-05-19 08:23:00,64.2,61.0,29.61,ENE,64,4.5,9.6,89,0.02,,,0.16,WUHU21623XXSP,2013-05-19 13:23:00,
2013-05-19 08:28:00,64.6,61.3,29.61,ESE,112,0.9,9.6,89,0.02,,,0.16,WUHU21623XXSP,2013-05-19 13:28:00,
2013-05-19 08:33:00,64.6,61.3,29.61,NNE,16,1.0,1.8,89,0.02,,,0.16,WUHU21623XXSP,2013-05-19 13:33:00,
2013-05-19 08:38:00,64.6,61.7,29.63,SSE,157,0.9,6.5,90,0.02,,,0.16,WUHU21623XXSP,2013-05-19 13:38:00,
2013-05-19 08:43:00,64.8,61.8,29.64,SSE,157,0.9,6.5,90,0.02,,,0.16,WUHU21623XXSP,2013-05-19 13:43:00,
2013-05-19 08:48:00,64.9,62.0,29.67,SSW,202,9.2,10.7,90,0.02,,,0.16,WUHU21623XXSP,2013-05-19 13:48:00,
2013-05-19 08:53:00,65.1,62.2,29.69,South,190,7.3,10.7,90,0.02,,,0.16,WUHU21623XXSP,2013-05-19 13:53:00,
2013-05-19 08:58:00,65.5,62.5,29.69,SSW,193,7.0,10.5,90,0.00,,,0.16,WUHU21623XXSP,2013-05-19 13:58:00,
2013-05-19 09:03:00,65.7,62.7,29.69,South,186,6.4,10.3,90,0.00,,,0.16,WUHU21623XXSP,2013-05-19 14:03:00,
2013-05-19 09:08:00,65.8,62.8,29.69,SSW,200,5.5,10.3,90,0.00,,,0.16,WUHU21623XXSP,2013-05-19 14:08:00,
2013-05-19 09:13:00,65.8,62.8,29.68,SSW,192,5.2,9.8,90,0.00,,,0.16,WUHU21623XXSP,2013-05-19 14:13:00,
2013-05-19 09:18:00,65.8,62.8,29.69,South,172,3.9,9.6,90,0.00,,,0.16,WUHU21623XXSP,2013-05-19 14:18:00,
2013-05-19 09:23:00,65.8,62.8,29.68,SSW,192,4.3,8.9,90,0.00,,,0.16,WUHU21623XXSP,2013-05-19 14:23:00,
2013-05-19 09:28:00,66.0,63.0,29.68,SSW,197,4.3,11.9,90,0.00,,,0.16,WUHU21623XXSP,2013-05-19 14:28:00,
2013-05-19 09:33:00,66.0,63.0,29.68,South,182,3.3,11.9,90,0.00,,,0.16,WUHU21623XXSP,2013-05-19 14:33:00,
2013-05-19 09:38:00,66.0,63.0,29.68,SSE,168,4.4,8.5,90,0.00,,,0.16,WUHU21623XXSP,2013-05-19 14:38:00,
2013-05-19 09:43:00,66.0,63.0,29.68,South,175,3.7,8.5,90,0.00,,,0.16,WUHU21623XXSP,2013-05-19 14:43:00,
2013-05-19 09:48:00,66.0,63.0,29.67,South,175,2.5,8.5,90,0.00,,,0.16,WUHU21623XXSP,2013-05-19 14:48:00,
2013-05-19 09:53:00,66.0,63.0,29.67,South,174,4.0,8.5,90,0.00,,,0.16,WUHU21623XXSP,2013-05-19 14:53:00,
2013-05-19 09:58:00,66.0,63.3,29.67,South,176,3.8,6.9,91,0.00,,,0.16,WUHU21623XXSP,2013-05-19 14:58:00,
2013-05-19 10:04:00,66.4,63.6,29.67,SSE,151,3.9,8.7,91,0.00,,,0.16,WUHU21623XXSP,2013-05-19 15:04:00,
2013-05-19 10:09:00,66.7,64.0,29.67,South,176,4.8,8.7,91,0.00,,,0.16,WUHU21623XXSP,2013-05-19 15:09:00,
2013-05-19 10:14:00,66.9,64.2,29.67,South,189,1.9,8.3,91,0.00,,,0.16,WUHU21623XXSP,2013-05-19 15:14:00,
2013-05-19 10:19:00,67.3,64.5,29.66,ESE,112,4.5,8.3,91,0.00,,,0.16,WUHU21623XXSP,2013-05-19 15:19:00,
2013-05-19 10:24:00,67.5,64.4,29.66,SSE,157,4.0,9.6,90,0.00,,,0.16,WUHU21623XXSP,2013-05-19 15:24:00,
2013-05-19 10:29:00,67.8,64.4,29.66,SSE,157,5.6,9.6,89,0.00,,,0.16,WUHU21623XXSP,2013-05-19 15:29:00,
2013-05-19 10:34:00,68.2,64.8,29.65,SE,145,2.9,7.8,89,0.00,,,0.16,WUHU21623XXSP,2013-05-19 15:34:00,
2013-05-19 10:39:00,68.7,65.3,29.65,South,180,5.8,6.3,89,0.00,,,0.16,WUHU21623XXSP,2013-05-19 15:39:00,
2013-05-19 10:44:00,68.9,64.8,29.65,South,170,4.8,8.7,87,0.00,,,0.16,WUHU21623XXSP,2013-05-19 15:44:00,
2013-05-19 10:49:00,69.3,64.8,29.64,South,171,3.6,8.7,86,0.00,,,0.16,WUHU21623XXSP,2013-05-19 15:49:00,
2013-05-19 10:54:00,69.4,65.0,29.64,South,185,3.2,7.2,86,0.00,,,0.16,WUHU21623XXSP,2013-05-19 15:54:00,
2013-05-19 10:59:00,69.6,65.2,29.64,SSE,154,3.4,7.4,86,0.00,,,0.16,WUHU21623XXSP,2013-05-19 15:59:00,
2013-05-19 11:04:00,70.0,65.2,29.64,South,183,2.9,7.4,85,0.00,,,0.16,WUHU21623XXSP,2013-05-19 16:04:00,
2013-05-19 11:09:00,70.3,65.2,29.64,SSE,164,3.8,10.7,84,0.00,,,0.16,WUHU21623XXSP,2013-05-19 16:09:00,
2013-05-19 11:14:00,70.3,64.9,29.64,SSE,157,5.1,10.7,83,0.00,,,0.16,WUHU21623XXSP,2013-05-19 16:14:00,
2013-05-19 11:19:00,70.3,64.9,29.64,South,180,6.0,10.3,83,0.00,,,0.16,WUHU21623XXSP,2013-05-19 16:19:00,
2013-05-19 11:24:00,70.5,65.1,29.64,South,180,3.8,10.3,83,0.00,,,0.16,WUHU21623XXSP,2013-05-19 16:24:00,
2013-05-19 11:29:00,70.7,65.2,29.64,SSW,202,4.5,6.5,83,0.00,,,0.16,WUHU21623XXSP,2013-05-19 16:29:00,
2013-05-19 11:34:00,70.9,65.4,29.64,SSE,157,5.4,15.9,83,0.00,,,0.16,WUHU21623XXSP,2013-05-19 16:34:00,
2013-05-19 11:39:00,71.2,65.4,29.64,SE,136,3.9,15.9,82,0.00,,,0.16,WUHU21623XXSP,2013-05-19 16:39:00,
2013-05-19 11:44:00,71.4,65.6,29.63,SSE,157,4.0,8.9,82,0.00,,,0.16,WUHU21623XXSP,2013-05-19 16:44:00,
2013-05-19 11:50:00,71.8,65.6,29.63,SSE,157,3.6,6.9,81,0.00,,,0.16,WUHU21623XXSP,2013-05-19 16:50:00,
2013-05-19 11:56:00,72.1,65.7,29.63,SSE,150,3.2,9.8,80,0.00,,,0.16,WUHU21623XXSP,2013-05-19 16:56:00,
2013-05-19 12:01:00,72.7,66.2,29.64,SSE,157,4.5,11.0,80,0.00,,,0.16,WUHU21623XXSP,2013-05-19 17:01:00,
2013-05-19 12:06:00,73.2,66.7,29.64,South,181,8.6,14.3,80,0.00,,,0.16,WUHU21623XXSP,2013-05-19 17:06:00,
2013-05-19 12:11:00,73.8,66.9,29.64,ESE,112,6.3,14.3,79,0.00,,,0.16,WUHU21623XXSP,2013-05-19 17:11:00,
2013-05-19 12:16:00,74.1,66.9,29.64,SSE,157,5.8,11.6,78,0.00,,,0.16,WUHU21623XXSP,2013-05-19 17:16:00,
2013-05-19 12:21:00,74.5,66.8,29.64,SSW,202,13.9,16.6,77,0.00,,,0.16,WUHU21623XXSP,2013-05-19 17:21:00,
2013-05-19 12:26:00,74.5,66.8,29.64,SSE,157,13.0,16.6,77,0.00,,,0.16,WUHU21623XXSP,2013-05-19 17:26:00,
2013-05-19 12:31:00,74.7,66.6,29.64,South,170,5.8,15.0,76,0.00,,,0.16,WUHU21623XXSP,2013-05-19 17:31:00,
2013-05-19 12:36:00,74.7,66.6,29.63,SSE,157,5.4,12.1,76,0.00,,,0.16,WUHU21623XXSP,2013-05-19 17:36:00,
2013-05-19 12:41:00,74.5,66.4,29.63,SW,225,7.8,12.1,76,0.00,,,0.16,WUHU21623XXSP,2013-05-19 17:41:00,
2013-05-19 12:46:00,74.8,66.8,29.63,South,178,9.8,13.4,76,0.00,,,0.16,WUHU21623XXSP,2013-05-19 17:46:00,
2013-05-19 12:51:00,75.0,67.0,29.62,South,179,8.4,13.4,76,0.00,,,0.16,WUHU21623XXSP,2013-05-19 17:51:00,
2013-05-19 12:56:00,75.7,67.6,29.61,South,184,8.2,13.4,76,0.00,,,0.16,WUHU21623XXSP,2013-05-19 17:56:00,
2013-05-19 13:01:00,76.3,67.4,29.62,South,173,8.7,14.3,74,0.00,,,0.16,WUHU21623XXSP,2013-05-19 18:01:00,
2013-05-19 13:06:00,76.3,67.4,29.62,South,172,6.5,14.3,74,0.00,,,0.16,WUHU21623XXSP,2013-05-19 18:06:00,
2013-05-19 13:11:00,76.3,67.0,29.62,SSE,161,6.4,13.4,73,0.00,,,0.16,WUHU21623XXSP,2013-05-19 18:11:00,
2013-05-19 13:16:00,76.3,67.0,29.62,South,172,8.9,15.9,73,0.00,,,0.16,WUHU21623XXSP,2013-05-19 18:16:00,
2013-05-19 13:21:00,76.8,67.1,29.61,South,180,11.4,18.8,72,0.00,,,0.16,WUHU21623XXSP,2013-05-19 18:21:00,
2013-05-19 13:26:00,76.8,66.8,29.62,South,182,9.7,18.8,71,0.00,,,0.16,WUHU21623XXSP,2013-05-19 18:26:00,
2013-05-19 13:31:00,76.8,65.9,29.61,SSW,202,23.3,23.3,69,0.00,,,0.16,WUHU21623XXSP,2013-05-19 18:31:00,
2013-05-19 13:36:00,77.5,67.0,29.61,South,176,11.3,23.3,70,0.00,,,0.16,WUHU21623XXSP,2013-05-19 18:36:00,
2013-05-19 13:41:00,77.7,66.3,29.61,South,188,12.4,19.7,68,0.00,,,0.16,WUHU21623XXSP,2013-05-19 18:41:00,
2013-05-19 13:46:00,78.4,67.4,29.61,South,180,9.8,16.8,69,0.00,,,0.16,WUHU21623XXSP,2013-05-19 18:46:00,
2013-05-19 13:51:00,78.6,66.3,29.61,South,173,7.3,20.8,66,0.00,,,0.16,WUHU21623XXSP,2013-05-19 18:51:00,
2013-05-19 13:56:00,78.4,66.5,29.61,SSW,202,8.3,20.8,67,0.00,,,0.16,WUHU21623XXSP,2013-05-19 18:56:00,
2013-05-19 14:01:00,78.3,66.8,29.61,SSW,194,7.9,14.8,68,0.00,,,0.16,WUHU21623XXSP,2013-05-19 19:01:00,
2013-05-19 14:06:00,78.1,66.2,29.61,South,180,9.1,11.0,67,0.00,,,0.16,WUHU21623XXSP,2013-05-19 19:06:00,
2013-05-19 14:11:00,78.6,67.1,29.60,SSE,157,7.4,14.1,68,0.00,,,0.16,WUHU21623XXSP,2013-05-19 19:11:00,
2013-05-19 14:16:00,78.6,66.7,29.60,SSE,160,6.5,14.1,67,0.00,,,0.16,WUHU21623XXSP,2013-05-19 19:16:00,
2013-05-19 14:21:00,78.8,66.5,29.61,SW,225,9.6,13.6,66,0.00,,,0.16,WUHU21623XXSP,2013-05-19 19:21:00,
2013-05-19 14:26:00,78.8,66.9,29.60,South,180,10.5,13.6,67,0.00,,,0.16,WUHU21623XXSP,2013-05-19 19:26:00,
2013-05-19 14:31:00,79.3,67.4,29.60,South,180,5.8,10.5,67,0.00,,,0.16,WUHU21623XXSP,2013-05-19 19:31:00,
2013-05-19 14:36:00,80.1,67.7,29.60,SSE,157,12.8,16.3,66,0.00,,,0.16,WUHU21623XXSP,2013-05-19 19:36:00,
2013-05-19 14:41:00,79.9,67.0,29.60,SSE,157,13.4,16.3,65,0.00,,,0.16,WUHU21623XXSP,2013-05-19 19:41:00,
2013-05-19 14:46:00,80.1,67.7,29.59,SSW,198,6.9,13.4,66,0.00,,,0.16,WUHU21623XXSP,2013-05-19 19:46:00,
2013-05-19 14:51:00,80.4,68.0,29.59,South,180,8.9,13.6,66,0.00,,,0.16,WUHU21623XXSP,2013-05-19 19:51:00,
2013-05-19 14:56:00,81.1,67.8,29.59,SSW,202,10.1,13.6,64,0.00,,,0.16,WUHU21623XXSP,2013-05-19 19:56:00,
2013-05-19 15:01:00,81.1,67.3,29.59,South,191,6.4,13.0,63,0.00,,,0.16,WUHU21623XXSP,2013-05-19 20:01:00,
2013-05-19 15:07:00,81.1,67.3,29.59,South,180,8.1,13.0,63,0.00,,,0.16,WUHU21623XXSP,2013-05-19 20:07:00,
2013-05-19 15:12:00,80.8,67.0,29.58,South,180,8.5,13.0,63,0.00,,,0.16,WUHU21623XXSP,2013-05-19 20:12:00,
2013-05-19 15:17:00,80.2,66.5,29.59,South,185,7.7,13.0,63,0.00,,,0.16,WUHU21623XXSP,2013-05-19 20:17:00,
2013-05-19 15:22:00,80.4,67.6,29.58,South,180,4.5,12.3,65,0.00,,,0.16,WUHU21623XXSP,2013-05-19 20:22:00,
2013-05-19 15:27:00,80.8,67.0,29.58,SSE,168,6.7,10.7,63,0.00,,,0.16,WUHU21623XXSP,2013-05-19 20:27:00,
2013-05-19 15:32:00,80.4,66.7,29.58,SSE,168,3.6,10.7,63,0.00,,,0.16,WUHU21623XXSP,2013-05-19 20:32:00,
2013-05-19 15:37:00,79.9,66.1,29.58,South,177,5.6,8.3,63,0.00,,,0.16,WUHU21623XXSP,2013-05-19 20:37:00,
2013-05-19 15:42:00,79.5,66.3,29.57,South,179,3.9,8.3,64,0.00,,,0.16,WUHU21623XXSP,2013-05-19 20:42:00,
2013-05-19 15:47:00,79.0,66.2,29.59,SSW,202,9.2,9.8,65,0.00,,,0.16,WUHU21623XXSP,2013-05-19 20:47:00,
2013-05-19 15:52:00,78.1,65.8,29.61,SSW,198,10.0,18.3,66,0.00,,,0.16,WUHU21623XXSP,2013-05-19 20:52:00,
2013-05-19 15:57:00,75.7,64.8,29.61,SSE,168,4.0,18.3,69,0.08,,,0.24,WUHU21623XXSP,2013-05-19 20:57:00,
2013-05-19 16:02:00,73.6,64.4,29.60,East,93,1.2,9.6,73,0.08,,,0.24,WUHU21623XXSP,2013-05-19 21:02:00,
2013-05-19 16:07:00,72.3,64.7,29.59,SSE,165,1.9,8.9,77,0.08,,,0.24,WUHU21623XXSP,2013-05-19 21:07:00,
2013-05-19 16:12:00,71.4,64.2,29.60,East,90,0.7,3.1,78,0.08,,,0.24,WUHU21623XXSP,2013-05-19 21:12:00,
2013-05-19 16:17:00,70.9,64.0,29.59,East,90,0.7,3.1,79,0.08,,,0.24,WUHU21623XXSP,2013-05-19 21:17:00,
2013-05-19 16:22:00,70.3,63.9,29.60,East,90,0.0,3.1,80,0.08,,,0.24,WUHU21623XXSP,2013-05-19 21:22:00,
2013-05-19 16:27:00,70.0,63.5,29.60,South,180,0.0,2.7,80,0.08,,,0.24,WUHU21623XXSP,2013-05-19 21:27:00,
2013-05-19 16:32:00,69.4,63.7,29.60,ENE,67,0.0,0.9,82,0.08,,,0.24,WUHU21623XXSP,2013-05-19 21:32:00,
2013-05-19 16:37:00,69.1,63.3,29.60,ESE,112,1.3,1.3,82,0.08,,,0.24,WUHU21623XXSP,2013-05-19 21:37:00,
2013-05-19 16:42:00,68.7,63.3,29.59,ENE,67,4.0,4.0,83,0.08,,,0.24,WUHU21623XXSP,2013-05-19 21:42:00,
2013-05-19 16:47:00,68.7,63.3,29.57,North,0,0.7,4.0,83,0.10,,,0.26,WUHU21623XXSP,2013-05-19 21:47:00,
2013-05-19 16:52:00,68.7,63.3,29.56,North,0,0.9,0.9,83,0.08,,,0.26,WUHU21623XXSP,2013-05-19 21:52:00,
2013-05-19 16:57:00,68.7,63.3,29.56,NNE,22,1.7,1.8,83,0.04,,,0.28,WUHU21623XXSP,2013-05-19 21:57:00,
2013-05-19 17:02:00,68.5,63.2,29.56,NNE,22,2.5,4.5,83,0.04,,,0.28,WUHU21623XXSP,2013-05-19 22:02:00,
2013-05-19 17:07:00,68.5,63.2,29.56,NE,36,1.3,4.5,83,0.04,,,0.28,WUHU21623XXSP,2013-05-19 22:07:00,
2013-05-19 17:12:00,68.4,63.3,29.55,NW,315,0.0,3.6,84,0.04,,,0.28,WUHU21623XXSP,2013-05-19 22:12:00,
2013-05-19 17:17:00,68.4,63.3,29.55,ENE,67,3.4,3.4,84,0.04,,,0.28,WUHU21623XXSP,2013-05-19 22:17:00,
2013-05-19 17:22:00,68.2,63.5,29.59,SSE,157,3.6,4.7,85,0.06,,,0.30,WUHU21623XXSP,2013-05-19 22:22:00,
2013-05-19 17:27:00,67.6,63.3,29.59,South,175,9.8,14.8,86,0.16,,,0.40,WUHU21623XXSP,2013-05-19 22:27:00,
2013-05-19 17:32:00,66.7,62.4,29.59,SSE,157,6.5,14.8,86,0.21,,,0.45,WUHU21623XXSP,2013-05-19 22:32:00,
2013-05-19 17:37:00,65.8,61.5,29.57,SE,142,3.7,13.0,86,0.21,,,0.45,WUHU21623XXSP,2013-05-19 22:37:00,
2013-05-19 17:42:00,65.1,61.2,29.57,ESE,112,0.0,13.0,87,0.21,,,0.47,WUHU21623XXSP,2013-05-19 22:42:00,
2013-05-19 17:47:00,64.8,60.8,29.57,SSW,202,0.0,2.9,87,0.25,,,0.51,WUHU21623XXSP,2013-05-19 22:47:00,
2013-05-19 17:52:00,64.6,61.0,29.57,SE,135,1.1,2.9,88,0.27,,,0.53,WUHU21623XXSP,2013-05-19 22:52:00,
2013-05-19 17:57:00,64.6,61.0,29.57,South,184,2.5,3.8,88,0.27,,,0.55,WUHU21623XXSP,2013-05-19 22:57:00,
2013-05-19 18:02:00,64.2,61.0,29.57,SE,127,1.5,3.8,89,0.29,,,0.57,WUHU21623XXSP,2013-05-19 23:02:00,
2013-05-19 18:07:00,64.2,61.0,29.57,SSW,212,2.0,5.8,89,0.29,,,0.57,WUHU21623XXSP,2013-05-19 23:07:00,
2013-05-19 18:12:00,64.2,61.0,29.56,South,173,4.4,7.8,89,0.31,,,0.59,WUHU21623XXSP,2013-05-19 23:12:00,
2013-05-19 18:17:00,64.2,61.3,29.56,SE,135,3.1,7.8,90,0.31,,,0.59,WUHU21623XXSP,2013-05-19 23:17:00,
2013-05-19 18:22:00,64.0,61.2,29.56,SSE,164,3.2,6.7,90,0.31,,,0.61,WUHU21623XXSP,2013-05-19 23:22:00,
2013-05-19 18:27:00,64.0,61.2,29.56,SSE,162,1.9,6.7,90,0.21,,,0.61,WUHU21623XXSP,2013-05-19 23:27:00,
2013-05-19 18:32:00,64.0,61.2,29.56,SSE,157,4.3,6.0,90,0.16,,,0.61,WUHU21623XXSP,2013-05-19 23:32:00,
2013-05-19 18:37:00,64.0,61.4,29.56,SSE,162,4.2,8.1,91,0.16,,,0.61,WUHU21623XXSP,2013-05-19 23:37:00,
2013-05-19 18:42:00,64.0,61.4,29.56,SSE,165,5.1,8.3,91,0.12,,,0.61,WUHU21623XXSP,2013-05-19 23:42:00,
2013-05-19 18:47:00,64.0,61.4,29.56,South,183,3.4,8.3,91,0.10,,,0.61,WUHU21623XXSP,2013-05-19 23:47:00,
2013-05-19 18:52:00,64.0,61.4,29.56,SSW,202,3.1,7.2,91,0.08,,,0.61,WUHU21623XXSP,2013-05-19 23:52:00,
2013-05-19 18:57:00,64.2,61.6,29.56,SSE,157,3.1,5.8,91,0.06,,,0.61,WUHU21623XXSP,2013-05-19 23:57:00,
2013-05-19 19:02:00,64.2,61.6,29.56,SSE,157,4.7,4.7,91,0.04,,,0.61,WUHU21623XXSP,2013-05-20 00:02:00,
2013-05-19 19:07:00,64.2,61.6,29.57,SSE,163,3.2,5.1,91,0.04,,,0.61,WUHU21623XXSP,2013-05-20 00:07:00,
2013-05-19 19:12:00,64.4,62.1,29.57,South,173,1.7,6.3,92,0.02,,,0.61,WUHU21623XXSP,2013-05-20 00:12:00,
2013-05-19 19:17:00,64.6,62.3,29.57,SSE,160,1.8,6.3,92,0.02,,,0.61,WUHU21623XXSP,2013-05-20 00:17:00,
2013-05-19 19:22:00,64.6,62.3,29.56,East,90,1.0,3.8,92,0.00,,,0.61,WUHU21623XXSP,2013-05-20 00:22:00,
2013-05-19 19:27:00,64.6,62.3,29.56,South,180,1.1,3.8,92,0.00,,,0.61,WUHU21623XXSP,2013-05-20 00:27:00,
2013-05-19 19:32:00,64.6,62.3,29.56,SE,135,0.7,1.3,92,0.00,,,0.61,WUHU21623XXSP,2013-05-20 00:32:00,
2013-05-19 19:37:00,64.8,62.4,29.56,SE,135,0.0,0.7,92,0.00,,,0.61,WUHU21623XXSP,2013-05-20 00:37:00,
2013-05-19 19:42:00,64.8,62.4,29.57,SSE,157,0.9,1.3,92,0.00,,,0.61,WUHU21623XXSP,2013-05-20 00:42:00,
2013-05-19 19:47:00,64.9,62.6,29.57,East,90,0.0,1.3,92,0.00,,,0.61,WUHU21623XXSP,2013-05-20 00:47:00,
2013-05-19 19:52:00,64.9,62.6,29.56,East,90,0.0,1.3,92,0.00,,,0.61,WUHU21623XXSP,2013-05-20 00:52:00,
2013-05-19 19:57:00,64.9,62.6,29.56,NE,45,0.0,1.3,92,0.00,,,0.61,WUHU21623XXSP,2013-05-20 00:57:00,
2013-05-19 20:02:00,64.9,62.6,29.56,ESE,112,0.0,0.0,92,0.00,,,0.61,WUHU21623XXSP,2013-05-20 01:02:00,
2013-05-19 20:07:00,64.9,62.6,29.56,ENE,67,0.0,0.0,92,0.00,,,0.61,WUHU21623XXSP,2013-05-20 01:07:00,
2013-05-19 20:12:00,64.9,62.6,29.55,WSW,247,0.0,0.7,92,0.00,,,0.61,WUHU21623XXSP,2013-05-20 01:12:00,
2013-05-19 20:17:00,64.9,62.6,29.56,SW,225,0.0,0.7,92,0.00,,,0.61,WUHU21623XXSP,2013-05-20 01:17:00,
2013-05-19 20:22:00,64.9,62.6,29.55,WNW,292,0.0,0.0,92,0.00,,,0.61,WUHU21623XXSP,2013-05-20 01:22:00,
2013-05-19 20:27:00,64.9,62.6,29.55,NNW,337,0.0,0.0,92,0.00,,,0.61,WUHU21623XXSP,2013-05-20 01:27:00,
2013-05-19 20:32:00,64.9,62.6,29.55,NNW,337,0.0,0.0,92,0.00,,,0.61,WUHU21623XXSP,2013-05-20 01:32:00,
2013-05-19 20:37:00,64.9,62.6,29.54,ESE,112,0.0,0.0,92,0.00,,,0.61,WUHU21623XXSP,2013-05-20 01:37:00,
2013-05-19 20:42:00,64.8,62.4,29.54,ENE,67,0.0,0.0,92,0.00,,,0.61,WUHU21623XXSP,2013-05-20 01:42:00,
2013-05-19 20:47:00,64.8,62.4,29.53,NE,45,0.0,0.0,92,0.00,,,0.61,WUHU21623XXSP,2013-05-20 01:47:00,
2013-05-19 20:52:00,64.6,62.3,29.54,ESE,112,0.0,0.0,92,0.00,,,0.61,WUHU21623XXSP,2013-05-20 01:52:00,
2013-05-19 20:57:00,64.8,62.4,29.54,ESE,112,0.0,0.0,92,0.00,,,0.61,WUHU21623XXSP,2013-05-20 01:57:00,
2013-05-19 21:02:00,64.6,62.3,29.54,ESE,112,0.9,0.9,92,0.00,,,0.61,WUHU21623XXSP,2013-05-20 02:02:00,
2013-05-19 21:07:00,64.6,62.3,29.54,ESE,112,0.0,1.1,92,0.00,,,0.61,WUHU21623XXSP,2013-05-20 02:07:00,
2013-05-19 21:12:00,64.4,62.1,29.54,SE,135,0.0,1.1,92,0.00,,,0.61,WUHU21623XXSP,2013-05-20 02:12:00,
2013-05-19 21:17:00,64.2,61.9,29.55,SW,225,0.0,0.7,92,0.00,,,0.61,WUHU21623XXSP,2013-05-20 02:17:00,
2013-05-19 21:23:00,64.2,61.9,29.54,NNW,337,0.0,0.7,92,0.00,,,0.61,WUHU21623XXSP,2013-05-20 02:23:00,
2013-05-19 21:28:00,64.6,62.3,29.54,NNW,337,0.0,0.0,92,0.00,,,0.61,WUHU21623XXSP,2013-05-20 02:28:00,
2013-05-19 21:33:00,64.8,62.7,29.55,ENE,67,0.0,0.0,93,0.00,,,0.61,WUHU21623XXSP,2013-05-20 02:33:00,
2013-05-19 21:38:00,64.6,62.3,29.56,ESE,112,0.0,0.0,92,0.00,,,0.61,WUHU21623XXSP,2013-05-20 02:38:00,
2013-05-19 21:43:00,64.6,62.3,29.56,ESE,112,0.0,0.0,92,0.00,,,0.61,WUHU21623XXSP,2013-05-20 02:43:00,
2013-05-19 21:48:00,64.6,62.3,29.55,ESE,112,0.0,0.0,92,0.00,,,0.61,WUHU21623XXSP,2013-05-20 02:48:00,
2013-05-19 21:53:00,64.6,62.3,29.55,ESE,112,0.0,0.0,92,0.00,,,0.61,WUHU21623XXSP,2013-05-20 02:53:00,
2013-05-19 21:58:00,64.6,62.3,29.55,ENE,67,0.0,0.0,92,0.00,,,0.61,WUHU21623XXSP,2013-05-20 02:58:00,
2013-05-19 22:03:00,64.2,61.9,29.54,NE,45,1.3,1.3,92,0.00,,,0.61,WUHU21623XXSP,2013-05-20 03:03:00,
2013-05-19 22:08:00,64.2,61.9,29.54,NE,45,0.0,1.3,92,0.00,,,0.61,WUHU21623XXSP,2013-05-20 03:08:00,
2013-05-19 22:13:00,64.0,61.7,29.54,NNW,337,0.0,0.0,92,0.00,,,0.61,WUHU21623XXSP,2013-05-20 03:13:00,
2013-05-19 22:18:00,64.0,61.7,29.54,North,0,0.0,0.0,92,0.00,,,0.61,WUHU21623XXSP,2013-05-20 03:18:00,
2013-05-19 22:23:00,63.7,61.4,29.53,North,10,0.8,0.9,92,0.00,,,0.61,WUHU21623XXSP,2013-05-20 03:23:00,
2013-05-19 22:28:00,63.7,61.4,29.52,North,0,1.1,2.7,92,0.00,,,0.61,WUHU21623XXSP,2013-05-20 03:28:00,
2013-05-19 22:33:00,63.7,61.4,29.52,North,0,1.6,3.6,92,0.00,,,0.61,WUHU21623XXSP,2013-05-20 03:33:00,
2013-05-19 22:38:00,63.7,61.4,29.52,NNE,22,1.1,3.6,92,0.00,,,0.61,WUHU21623XXSP,2013-05-20 03:38:00,
2013-05-19 22:43:00,63.7,61.4,29.52,NNE,22,1.1,2.9,92,0.00,,,0.61,WUHU21623XXSP,2013-05-20 03:43:00,
2013-05-19 22:48:00,63.5,61.2,29.52,NNE,22,0.7,1.8,92,0.00,,,0.61,WUHU21623XXSP,2013-05-20 03:48:00,
2013-05-19 22:53:00,63.5,61.2,29.52,NNE,22,0.0,1.3,92,0.00,,,0.61,WUHU21623XXSP,2013-05-20 03:53:00,
2013-05-19 22:58:00,63.5,61.2,29.52,North,10,1.0,1.1,92,0.00,,,0.61,WUHU21623XXSP,2013-05-20 03:58:00,
2013-05-19 23:01:00,63.5,61.2,29.52,ENE,73,1.3,2.2,92,0.00,,,0.61,WUHU21623XXSP,2013-05-20 04:01:00,
2013-05-19 23:06:00,63.5,61.2,29.51,NNE,29,1.2,2.2,92,0.00,,,0.61,WUHU21623XXSP,2013-05-20 04:06:00,
2013-05-19 23:11:00,63.3,61.0,29.51,NNE,14,1.1,2.0,92,0.00,,,0.61,WUHU21623XXSP,2013-05-20 04:11:00,
2013-05-19 23:16:00,63.3,61.0,29.51,NNE,22,1.6,2.0,92,0.00,,,0.61,WUHU21623XXSP,2013-05-20 04:16:00,
2013-05-19 23:21:00,63.3,61.0,29.51,NNE,22,1.1,1.6,92,0.00,,,0.61,WUHU21623XXSP,2013-05-20 04:21:00,
2013-05-19 23:26:00,63.3,61.0,29.51,NNE,22,1.1,2.0,92,0.00,,,0.61,WUHU21623XXSP,2013-05-20 04:26:00,
2013-05-19 23:31:00,63.3,61.0,29.52,NE,34,0.9,2.2,92,0.00,,,0.61,WUHU21623XXSP,2013-05-20 04:31:00,
2013-05-19 23:36:00,63.3,61.0,29.53,NE,54,1.7,2.9,92,0.00,,,0.61,WUHU21623XXSP,2013-05-20 04:36:00,
2013-05-19 23:41:00,63.3,61.0,29.53,NE,39,2.1,3.8,92,0.00,,,0.61,WUHU21623XXSP,2013-05-20 04:41:00,
2013-05-19 23:46:00,63.3,61.0,29.53,NNE,22,2.5,5.1,92,0.00,,,0.61,WUHU21623XXSP,2013-05-20 04:46:00,
2013-05-19 23:51:00,63.3,61.0,29.53,NE,34,1.5,5.1,92,0.00,,,0.61,WUHU21623XXSP,2013-05-20 04:51:00,
2013-05-19 23:56:00,63.3,61.0,29.53,NE,45,6.0,6.5,92,0.00,,,0.61,WUHU21623XXSP,2013-05-20 04:56:00,